Tracking 28794 objects as of 19-Apr-2024
HD Live streaming from Space Station
objects crossing your sky now

DELTA 1 DEB

Track DELTA 1 DEB now!
10-day predictions


NORAD ID: 18870
Int'l Code: 1973-086HA
Perigee: 1,424.6 km
Apogee: 2,000.6 km
Inclination: 101.7 °
Period: 120.6 minutes
Semi major axis: 8083 km
RCS: 0.0245 m2 (small)
Launch date: November 6, 1973
Source: United States (US)
Launch site: AIR FORCE WESTERN TEST RANGE (AFWTR)

Note: This is SATELLITE DEBRIS
Your satellite tracking list
Your tracking list is empty




NASA's NSSDC Master Catalog

Two Line Element Set (TLE):
1 18870U 73086HA  24108.89052387  .00000370  00000-0  44865-2 0  9994
2 18870 101.7355 112.0029 0356253  70.2692 293.6406 11.94522864488667
Source of the keplerian elements: AFSPC